Regional Weather Roundup
Issued by NWS Sterling, VA

Home | Current Version | Previous Version | Graphics & Text | Print | Product List | Glossary On
Versions: 1 2 3 4 5 6 7 8 9 10 11 12 13 14 15 16 17 18 19 20 21 22 23 24 25 26 27 28 29 30 31 32 33 34 35 36 37 38 39 40 41 42 43 44 45 46 47 48 49 50
000
ASUS41 KLWX 311010
RWRLWX

REGIONAL WEATHER ROUNDUP
NATIONAL WEATHER SERVICE BALTIMORE MD/WASHINGTON DC
600 AM EDT THU JUL 31 2014

Note: "FAIR" indicates few or no clouds below 12,000 feet
with no significant weather and/or obstructions to visibility.
 TC=TEMPERATURE CELSIUS

 * =Non NWS site. Station does not report precipitation (e.g. rain,
    snow, etc.), thunder, or fog.

DCZ001-MDZ009-015-VAZ040>042-051-053>054-311100-
WASHINGTON METRO
  /KDAA//-FT BELVOIR

CITY           SKY/WX    TMP DP  RH WIND       PRES   REMARKS
WASHINGTON NAT CLEAR     67  60  78 SW6       30.09R
DULLES         PTCLDY    59  56  89 CALM      30.08R
ANDREWS AFB    CLEAR     62  59  92 S6        30.09R
QUANTICO       MOCLDY    64  58  80 W3        30.10R
COLLEGE PARK*  CLEAR     59  59 100 CALM      30.08R
LEESBURG*      CLEAR     59  59 100 CALM      30.09R
GAITHERSBURG*  CLEAR     59  55  88 CALM      30.12R

$$

MDZ006>007-011-014-311100-
BALTIMORE METRO

CITY           SKY/WX    TMP DP  RH WIND       PRES   REMARKS
BWI AIRPORT    PTCLDY    59  55  87 CALM      30.08R
MD SCIENCE CTR   N/A     67  57  70 MISG      30.08R
MARTIN STATE   CLEAR     63  63 100 CALM      30.09R
ANNAPOLIS      CLEAR     66  60  81 CALM      30.08R
FORT MEADE*    CLEAR     54  52  94 CALM      30.11R

$$

MDZ012-015-019>023-311100-
MARYLAND EASTERN SHORE

CITY           SKY/WX    TMP DP  RH WIND       PRES   REMARKS
OCEAN CITY     CLEAR     57  55  93 CALM      30.10R
SALISBURY      CLEAR     61  56  83 CALM      30.10R
BAY BRIDGE AP*   N/A     70  61  73 SW5       30.09R
CAMBRIDGE*     CLEAR     61  57  88 SE3       30.09S
EASTON*        CLEAR     65  63  91 CALM      30.13R

$$

MDZ017>025-311100-
SOUTHERN MARYLAND

CITY           SKY/WX    TMP DP  RH WIND       PRES   REMARKS
PATUXENT RIVER CLEAR     66  62  87 S5        30.09R
ST INIGOES     CLEAR     69  62  78 S5        30.09R
LEONARDTOWN*   CLEAR     64  61  88 SW3       30.11R

$$

MDZ003>005-311100-
NORTH CENTRAL MARYLAND

CITY           SKY/WX    TMP DP  RH WIND       PRES   REMARKS
FREDERICK*     CLEAR     59  59 100 CALM      30.11R FOG
HAGERSTOWN APT FOG       60  59  96 CALM      30.09R VSB 1/2
WESTMINSTER*   CLEAR     61  61 100 CALM      30.09R

$$

MDZ501>502-311100-
WESTERN MARYLAND

CITY           SKY/WX    TMP DP  RH WIND       PRES   REMARKS
OAKLAND*       CLEAR     54 N/A N/A SW6       30.13S
CUMBERLAND*    CLOUDY    57  55  94 CALM      30.14R VSB<1/4

$$

VAZ025>031-311100-
SHENANDOAH VALLEY

CITY           SKY/WX    TMP DP  RH WIND       PRES   REMARKS
WINCHESTER*    CLEAR     59  55  88 CALM      30.09S
STAUNTON*      CLEAR     53  50  90 CALM      30.13S

$$

WVZ021-048>050-054>055-311100-
EASTERN WEST VIRGINIA PANHANDLE

CITY           SKY/WX    TMP DP  RH WIND       PRES   REMARKS
MARTINSBURG    CLEAR     58  55  90 CALM      30.09R FOG
PETERSBURG*    FOG       53  50  90 CALM      30.12R VSB 1/4

$$

VAZ036>039-050-311100-
CENTRAL FOOTHILLS

CITY           SKY/WX    TMP DP  RH WIND       PRES   REMARKS
CHARLOTTESVILL CLEAR     58  56  93 CALM      30.10R
ORANGE*        CLEAR     55  54  94 CALM      30.11R

$$

VAZ055>057-311100-
NORTH AND CENTRAL PIEDMONT

CITY           SKY/WX    TMP DP  RH WIND       PRES   REMARKS
FREDERICKSBRG* CLEAR     62  60  94 CALM      30.09R
STAFFORD*      CLEAR     56  56 100 CALM      30.13S

$$

NCZ024-NYZ072-PAZ021-071-VAZ022-071-311100-
OTHER REGIONAL OBSERVATIONS

CITY           SKY/WX    TMP DP  RH WIND       PRES   REMARKS
NEW YORK CITY  CLEAR     68  54  60 SW5       30.11R
PHILADELPHIA   PTCLDY    67  57  70 S6        30.09R
PITTSBURGH     MOCLDY    58  56  93 CALM      30.06R
ROANOKE        PTCLDY    59  54  83 NW5       30.15R
RICHMOND       PTCLDY    66  61  84 CALM      30.10R
RALEIGH        MOCLDY    67  64  90 CALM      30.10R

$$

ANZ530>537-311100-
MARINE OBSERVATIONS

STATION/POSITION TIME  TEMP    WIND        PRES
                       AIR SEA DIR/SP/G
                 (UTC) (F)     (DEG/KT/KT) (MB)
THOMAS PT LIGHT  1000   70 77  230/ 12/ 14 1019.2R
BALT KEY BRIDGE  1000   67     180/  6/  8 1018.2R
COVE POINT       1000   69     240/ 10/ 12 1018.6R
LEWISETTA        1000   68 77  220/  7/  8 1018.8R
SOLOMONS ISLAND  1000      79                N/A
PINEY POINT      1000          230/ 11/ 12   N/A

$$




USA.gov is the U.S. government's official web portal to all federal, state and local government web resources and services.